User: anonymous   Login
Location: Unspecified
(0.0000°N, 0.0000°E)
Time: 15:35:07
(UTC+02:00)
Language:

Hamsat - Orbit

View from above orbital plane
View from above orbital plane
View from above satellite
View from above satellite

Ground track
Ground track

The orbit data is extracted from the following two-line orbital elements,

1 28650U 05017B   18170.85525575 +.00000262 +00000-0 +33615-4 0  9995
2 28650 097.6991 138.8828 0023404 357.9561 002.1557 14.88943569710804
Epoch (UTC): 19 June 2018 20:31:34
Eccentricity: 0.0023404
inclination: 97.6991°
perigee height: 585 km
apogee height: 617 km
right ascension of ascending node: 138.8828°
argument of perigee: 357.9561°
revolutions per day: 14.88943569
mean anomaly at epoch: 2.1557°
orbit number at epoch: 71080

The dashed part of the orbit path shows where the satellite is in the earth's shadow,  

DLR